Location: Aufkirchen
(47.9603°N, 11.3653°E)
Time: 11:35:06
(UTC+01:00)

Tiros 1 - Pass Details

Date: 30 November 2020
Orbit: 630 x 663 km, 48.4° (Epoch: 21 January)

Event Time Altitude Azimuth Distance (km) Brightness Sun altitude
Rises 16:36:36 0° 254° (WSW) 2,989 12.6 -2.6°
Reaches altitude 10° 16:38:57 10° 254° (WSW) 2,077 11.5 -3.0°
Maximum altitude 16:43:45 83° 167° (SSE) 669 7.3 -3.7°
Drops below altitude 10° 16:48:33 10° 80° (E) 2,068 9.1 -4.4°
Enters shadow 16:49:51 - 80° (E) 2,573 9.6 -4.6°
Sets 16:50:53 0° 80° (E) 2,975 - -4.7°
